Year,Month,Day,Hour,Minute,Value (Times are PST for temperature in C)
2009,07,05,00,00,16.10
2009,07,05,00,01,16.10
2009,07,05,00,02,16.00
2009,07,05,00,03,16.00
2009,07,05,00,04,15.90
2009,07,05,00,05,15.90
2009,07,05,00,06,15.90
2009,07,05,00,07,15.90
2009,07,05,00,08,15.80
2009,07,05,00,09,15.80
2009,07,05,00,10,15.80
2009,07,05,00,11,15.80
2009,07,05,00,12,15.80
2009,07,05,00,13,15.70
2009,07,05,00,14,15.70
2009,07,05,00,15,15.70
2009,07,05,00,16,15.70
2009,07,05,00,17,15.60
2009,07,05,00,18,15.60
2009,07,05,00,19,15.60
2009,07,05,00,20,15.60
2009,07,05,00,21,15.60
2009,07,05,00,22,15.60
2009,07,05,00,23,15.60
2009,07,05,00,24,15.60
2009,07,05,00,25,15.60
2009,07,05,00,26,15.60
2009,07,05,00,27,15.60
2009,07,05,00,28,15.60
2009,07,05,00,29,15.60
2009,07,05,00,30,15.60
2009,07,05,00,31,15.60
2009,07,05,00,32,15.60
2009,07,05,00,33,15.60
2009,07,05,00,34,15.60
2009,07,05,00,35,15.60
2009,07,05,00,36,15.60
2009,07,05,00,37,15.60
2009,07,05,00,38,15.60
2009,07,05,00,39,15.60
2009,07,05,00,40,15.60
2009,07,05,00,41,15.60
2009,07,05,00,42,15.60
2009,07,05,00,43,15.50
2009,07,05,00,44,15.50
2009,07,05,00,45,15.50
2009,07,05,00,46,15.50
2009,07,05,00,47,15.50
2009,07,05,00,48,15.50
2009,07,05,00,49,15.50
2009,07,05,00,50,15.50
2009,07,05,00,51,15.40
2009,07,05,00,52,15.40
2009,07,05,00,53,15.40
2009,07,05,00,54,15.40
2009,07,05,00,55,15.40
2009,07,05,00,56,15.40
2009,07,05,00,57,15.40
2009,07,05,00,58,15.40
2009,07,05,00,59,15.40
2009,07,05,01,00,15.40
2009,07,05,01,01,15.40
2009,07,05,01,02,15.40
2009,07,05,01,03,15.40
2009,07,05,01,04,15.30
2009,07,05,01,05,15.30
2009,07,05,01,06,15.30
2009,07,05,01,07,15.30
2009,07,05,01,08,15.20
2009,07,05,01,09,15.20
2009,07,05,01,10,15.20
2009,07,05,01,11,15.20
2009,07,05,01,12,15.10
2009,07,05,01,13,15.10
2009,07,05,01,14,15.10
2009,07,05,01,15,15.00
2009,07,05,01,16,15.10
2009,07,05,01,17,15.00
2009,07,05,01,18,15.00
2009,07,05,01,19,15.00
2009,07,05,01,20,15.00
2009,07,05,01,21,15.00
2009,07,05,01,22,15.00
2009,07,05,01,23,15.00
2009,07,05,01,24,15.00
2009,07,05,01,25,15.00
2009,07,05,01,26,15.00
2009,07,05,01,27,15.00
2009,07,05,01,28,15.00
2009,07,05,01,29,15.00
2009,07,05,01,30,14.90
2009,07,05,01,31,14.90
2009,07,05,01,32,14.80
2009,07,05,01,33,14.80
2009,07,05,01,34,14.80
2009,07,05,01,35,14.80
2009,07,05,01,36,14.80
2009,07,05,01,37,14.80
2009,07,05,01,38,14.80
2009,07,05,01,39,14.80
2009,07,05,01,40,14.80
2009,07,05,01,41,14.70
2009,07,05,01,42,14.70
2009,07,05,01,43,14.70
2009,07,05,01,44,14.70
2009,07,05,01,45,14.70
2009,07,05,01,46,14.70
2009,07,05,01,47,14.70
2009,07,05,01,48,14.70
2009,07,05,01,49,14.70
2009,07,05,01,50,14.60
2009,07,05,01,51,14.60
2009,07,05,01,52,14.60
2009,07,05,01,53,14.60
2009,07,05,01,54,14.60
2009,07,05,01,55,14.60
2009,07,05,01,56,14.60
2009,07,05,01,57,14.60
2009,07,05,01,58,14.60
2009,07,05,01,59,14.60
2009,07,05,02,00,14.60
2009,07,05,02,01,14.60
2009,07,05,02,02,14.50
2009,07,05,02,03,14.50
2009,07,05,02,04,14.40
2009,07,05,02,05,14.40
2009,07,05,02,06,14.40
2009,07,05,02,07,14.30
2009,07,05,02,08,14.30
2009,07,05,02,09,14.20
2009,07,05,02,10,14.20
2009,07,05,02,11,14.10
2009,07,05,02,12,14.10
2009,07,05,02,13,14.00
2009,07,05,02,14,13.90
2009,07,05,02,15,13.90
2009,07,05,02,16,13.90
2009,07,05,02,17,13.80
2009,07,05,02,18,13.80
2009,07,05,02,19,13.80
2009,07,05,02,20,13.80
2009,07,05,02,21,13.70
2009,07,05,02,22,13.70
2009,07,05,02,23,13.70
2009,07,05,02,24,13.70
2009,07,05,02,25,13.70
2009,07,05,02,26,13.70
2009,07,05,02,27,13.70
2009,07,05,02,28,13.70
2009,07,05,02,29,13.60
2009,07,05,02,30,13.60
2009,07,05,02,31,13.60
2009,07,05,02,32,13.60
2009,07,05,02,33,13.60
2009,07,05,02,34,13.60
2009,07,05,02,35,13.50
2009,07,05,02,36,13.50
2009,07,05,02,37,13.50
2009,07,05,02,38,13.40
2009,07,05,02,39,13.40
2009,07,05,02,40,13.40
2009,07,05,02,41,13.40
2009,07,05,02,42,13.40
2009,07,05,02,43,13.30
2009,07,05,02,44,13.30
2009,07,05,02,45,13.30
2009,07,05,02,46,13.30
2009,07,05,02,47,13.20
2009,07,05,02,48,13.20
2009,07,05,02,49,13.20
2009,07,05,02,50,13.20
2009,07,05,02,51,13.20
2009,07,05,02,52,13.20
2009,07,05,02,53,13.10
2009,07,05,02,54,13.10
2009,07,05,02,55,13.10
2009,07,05,02,56,13.10
2009,07,05,02,57,13.10
2009,07,05,02,58,13.10
2009,07,05,02,59,13.10
2009,07,05,03,00,13.00
2009,07,05,03,01,13.00
2009,07,05,03,02,13.00
2009,07,05,03,03,13.00
2009,07,05,03,04,12.90
2009,07,05,03,05,12.90
2009,07,05,03,06,12.90
2009,07,05,03,07,12.90
2009,07,05,03,08,12.90
2009,07,05,03,09,12.80
2009,07,05,03,10,12.80
2009,07,05,03,11,12.80
2009,07,05,03,12,12.80
2009,07,05,03,13,12.80
2009,07,05,03,14,12.80
2009,07,05,03,15,12.70
2009,07,05,03,16,12.70
2009,07,05,03,17,12.70
2009,07,05,03,18,12.70
2009,07,05,03,19,12.70
2009,07,05,03,20,12.70
2009,07,05,03,21,12.70
2009,07,05,03,22,12.70
2009,07,05,03,23,12.70
2009,07,05,03,24,12.70
2009,07,05,03,25,12.70
2009,07,05,03,26,12.70
2009,07,05,03,27,12.70
2009,07,05,03,28,12.70
2009,07,05,03,29,12.60
2009,07,05,03,30,12.60
2009,07,05,03,31,12.60
2009,07,05,03,32,12.60
2009,07,05,03,33,12.60
2009,07,05,03,34,12.60
2009,07,05,03,35,12.60
2009,07,05,03,36,12.60
2009,07,05,03,37,12.60
2009,07,05,03,38,12.60
2009,07,05,03,39,12.60
2009,07,05,03,40,12.60
2009,07,05,03,41,12.60
2009,07,05,03,42,12.60
2009,07,05,03,43,12.60
2009,07,05,03,44,12.60
2009,07,05,03,45,12.60
2009,07,05,03,46,12.50
2009,07,05,03,47,12.60
2009,07,05,03,48,12.60
2009,07,05,03,49,12.60
2009,07,05,03,50,12.60
2009,07,05,03,51,12.60
2009,07,05,03,52,12.60
2009,07,05,03,53,12.60
2009,07,05,03,54,12.60
2009,07,05,03,55,12.60
2009,07,05,03,56,12.60
2009,07,05,03,57,12.60
2009,07,05,03,58,12.70
2009,07,05,03,59,12.70
2009,07,05,04,00,12.70
2009,07,05,04,01,12.70
2009,07,05,04,02,12.70
2009,07,05,04,03,12.70
2009,07,05,04,04,12.70
2009,07,05,04,05,12.70
2009,07,05,04,07,12.70
2009,07,05,04,08,12.70
2009,07,05,04,09,12.70
2009,07,05,04,10,12.70
2009,07,05,04,11,12.70
2009,07,05,04,12,12.70
2009,07,05,04,13,12.70
2009,07,05,04,14,12.70
2009,07,05,04,15,12.70
2009,07,05,04,16,12.70
2009,07,05,04,17,12.70
2009,07,05,04,18,12.70
2009,07,05,04,19,12.70
2009,07,05,04,20,12.70
2009,07,05,04,21,12.70
2009,07,05,04,22,12.70
2009,07,05,04,23,12.70
2009,07,05,04,28,12.70
2009,07,05,04,29,12.70
2009,07,05,04,30,12.70
2009,07,05,04,31,12.70
2009,07,05,04,32,12.70
2009,07,05,04,33,12.70
2009,07,05,04,34,12.70
2009,07,05,04,35,12.70
2009,07,05,04,36,12.70
2009,07,05,04,37,12.60
2009,07,05,04,38,12.60
2009,07,05,04,39,12.70
2009,07,05,04,40,12.60
2009,07,05,04,41,12.60
2009,07,05,04,42,12.60
2009,07,05,04,43,12.60
2009,07,05,04,44,12.60
2009,07,05,04,45,12.60
2009,07,05,04,46,12.60
2009,07,05,04,47,12.60
2009,07,05,04,48,12.60
2009,07,05,04,49,12.60
2009,07,05,04,50,12.60
2009,07,05,04,51,12.60
2009,07,05,04,52,12.60
2009,07,05,04,53,12.60
2009,07,05,04,54,12.60
2009,07,05,04,55,12.60
2009,07,05,04,56,12.60
2009,07,05,04,57,12.60
2009,07,05,04,58,12.50
2009,07,05,04,59,12.50
2009,07,05,05,00,12.60
2009,07,05,05,01,12.60
2009,07,05,05,02,12.60
2009,07,05,05,03,12.60
2009,07,05,05,04,12.60
2009,07,05,05,05,12.60
2009,07,05,05,06,12.60
2009,07,05,05,07,12.60
2009,07,05,05,08,12.70
2009,07,05,05,09,12.70
2009,07,05,05,10,12.70
2009,07,05,05,11,12.70
2009,07,05,05,12,12.70
2009,07,05,05,13,12.70
2009,07,05,05,14,12.70
2009,07,05,05,15,12.70
2009,07,05,05,16,12.70
2009,07,05,05,17,12.70
2009,07,05,05,18,12.70
2009,07,05,05,19,12.70
2009,07,05,05,20,12.70
2009,07,05,05,21,12.70
2009,07,05,05,22,12.70
2009,07,05,05,23,12.70
2009,07,05,05,24,12.70
2009,07,05,05,25,12.80
2009,07,05,05,26,12.80
2009,07,05,05,27,12.80
2009,07,05,05,28,12.80
2009,07,05,05,29,12.80
2009,07,05,05,30,12.80
2009,07,05,05,31,12.80
2009,07,05,05,32,12.80
2009,07,05,05,33,12.90
2009,07,05,05,34,12.90
2009,07,05,05,35,12.90
2009,07,05,05,36,13.00
2009,07,05,05,37,13.00
2009,07,05,05,38,13.00
2009,07,05,05,39,13.10
2009,07,05,05,40,13.10
2009,07,05,05,41,13.10
2009,07,05,05,42,13.10
2009,07,05,05,43,13.10
2009,07,05,05,44,13.10
2009,07,05,05,45,13.10
2009,07,05,05,46,13.20
2009,07,05,05,47,13.20
2009,07,05,05,48,13.20
2009,07,05,05,49,13.20
2009,07,05,05,50,13.20
2009,07,05,05,51,13.30
2009,07,05,05,52,13.30
2009,07,05,05,53,13.30
2009,07,05,05,54,13.30
2009,07,05,05,55,13.30
2009,07,05,05,56,13.30
2009,07,05,05,57,13.30
2009,07,05,05,58,13.30
2009,07,05,05,59,13.30
2009,07,05,06,00,13.40
2009,07,05,06,01,13.40
2009,07,05,06,02,13.40
2009,07,05,06,03,13.40
2009,07,05,06,04,13.40
2009,07,05,06,05,13.40
2009,07,05,06,06,13.40
2009,07,05,06,07,13.40
2009,07,05,06,08,13.40
2009,07,05,06,09,13.40
2009,07,05,06,10,13.40
2009,07,05,06,11,13.40
2009,07,05,06,12,13.40
2009,07,05,06,13,13.40
2009,07,05,06,14,13.40
2009,07,05,06,15,13.40
2009,07,05,06,16,13.30
2009,07,05,06,17,13.30
2009,07,05,06,18,13.30
2009,07,05,06,19,13.30
2009,07,05,06,20,13.20
2009,07,05,06,21,13.20
2009,07,05,06,22,13.20
2009,07,05,06,23,13.20
2009,07,05,06,24,13.20
2009,07,05,06,25,13.10
2009,07,05,06,26,13.10
2009,07,05,06,27,13.10
2009,07,05,06,28,13.10
2009,07,05,06,29,13.10
2009,07,05,06,30,13.10
2009,07,05,06,31,13.10
2009,07,05,06,32,13.10
2009,07,05,06,33,13.10
2009,07,05,06,34,13.10
2009,07,05,06,35,13.10
2009,07,05,06,36,13.10
2009,07,05,06,37,13.10
2009,07,05,06,38,13.10
2009,07,05,06,39,13.10
2009,07,05,06,40,13.10
2009,07,05,06,41,13.10
2009,07,05,06,42,13.10
2009,07,05,06,43,13.10
2009,07,05,06,44,13.10
2009,07,05,06,45,13.10
2009,07,05,06,46,13.20
2009,07,05,06,47,13.20
2009,07,05,06,48,13.20
2009,07,05,06,49,13.20
2009,07,05,06,50,13.20
2009,07,05,06,51,13.20
2009,07,05,06,52,13.20
2009,07,05,06,53,13.20
2009,07,05,06,54,13.30
2009,07,05,06,55,13.30
2009,07,05,06,56,13.30
2009,07,05,06,57,13.30
2009,07,05,06,58,13.30
2009,07,05,06,59,13.30
2009,07,05,07,00,13.30
2009,07,05,07,01,13.40
2009,07,05,07,02,13.40
2009,07,05,07,03,13.40
2009,07,05,07,04,13.40
2009,07,05,07,05,13.50
2009,07,05,07,06,13.50
2009,07,05,07,07,13.60
2009,07,05,07,08,13.60
2009,07,05,07,09,13.60
2009,07,05,07,10,13.60
2009,07,05,07,11,13.70
2009,07,05,07,12,13.70
2009,07,05,07,13,13.80
2009,07,05,07,14,13.80
2009,07,05,07,15,13.80
2009,07,05,07,16,13.80
2009,07,05,07,17,13.90
2009,07,05,07,18,14.00
2009,07,05,07,19,14.00
2009,07,05,07,20,14.10
2009,07,05,07,21,14.10
2009,07,05,07,22,14.20
2009,07,05,07,23,14.30
2009,07,05,07,24,14.40
2009,07,05,07,25,14.50
2009,07,05,07,26,14.60
2009,07,05,07,27,14.70
2009,07,05,07,28,14.90
2009,07,05,07,29,15.00
2009,07,05,07,30,15.00
2009,07,05,07,31,15.00
2009,07,05,07,32,15.00
2009,07,05,07,33,15.10
2009,07,05,07,34,15.10
2009,07,05,07,35,15.20
2009,07,05,07,36,15.30
2009,07,05,07,37,15.30
2009,07,05,07,38,15.40
2009,07,05,07,39,15.40
2009,07,05,07,40,15.50
2009,07,05,07,41,15.60
2009,07,05,07,42,15.60
2009,07,05,07,43,15.70
2009,07,05,07,44,15.80
2009,07,05,07,45,15.80
2009,07,05,07,46,15.90
2009,07,05,07,47,15.90
2009,07,05,07,48,16.00
2009,07,05,07,49,16.00
2009,07,05,07,50,16.10
2009,07,05,07,51,16.20
2009,07,05,07,52,16.20
2009,07,05,07,53,16.30
2009,07,05,07,54,16.50
2009,07,05,07,55,16.50
2009,07,05,07,56,16.60
2009,07,05,07,57,16.70
2009,07,05,07,58,16.70
2009,07,05,07,59,16.80
2009,07,05,08,00,16.90
2009,07,05,08,01,17.00
2009,07,05,08,02,17.10
2009,07,05,08,03,17.20
2009,07,05,08,04,17.30
2009,07,05,08,05,17.40
2009,07,05,08,06,17.50
2009,07,05,08,07,17.60
2009,07,05,08,08,17.70
2009,07,05,08,09,17.70
2009,07,05,08,10,17.80
2009,07,05,08,11,17.80
2009,07,05,08,12,17.90
2009,07,05,08,13,17.90
2009,07,05,08,14,17.90
2009,07,05,08,15,17.80
2009,07,05,08,16,17.80
2009,07,05,08,17,17.70
2009,07,05,08,18,17.70
2009,07,05,08,19,17.70
2009,07,05,08,20,17.60
2009,07,05,08,21,17.60
2009,07,05,08,22,17.60
2009,07,05,08,23,17.60
2009,07,05,08,24,17.60
2009,07,05,08,25,17.60
2009,07,05,08,26,17.60
2009,07,05,08,27,17.60
2009,07,05,08,28,17.60
2009,07,05,08,29,17.70
2009,07,05,08,30,17.70
2009,07,05,08,31,17.70
2009,07,05,08,32,17.70
2009,07,05,08,33,17.70
2009,07,05,08,34,17.70
2009,07,05,08,35,17.70
2009,07,05,08,36,17.70
2009,07,05,08,37,17.70
2009,07,05,08,38,17.70
2009,07,05,08,39,17.70
2009,07,05,08,40,17.70
2009,07,05,08,41,17.70
2009,07,05,08,42,17.70
2009,07,05,08,43,17.60
2009,07,05,08,44,17.60
2009,07,05,08,45,17.50
2009,07,05,08,46,17.50
2009,07,05,08,47,17.50
2009,07,05,08,48,17.40
2009,07,05,08,49,17.40
2009,07,05,08,50,17.40
2009,07,05,08,51,17.40
2009,07,05,08,52,17.30
2009,07,05,08,53,17.30
2009,07,05,08,54,17.30
2009,07,05,08,55,17.30
2009,07,05,08,56,17.20
2009,07,05,08,57,17.20
2009,07,05,08,58,17.20
2009,07,05,08,59,17.20
2009,07,05,09,00,17.20
2009,07,05,09,01,17.20
2009,07,05,09,02,17.20
2009,07,05,09,03,17.30
2009,07,05,09,04,17.30
2009,07,05,09,05,17.30
2009,07,05,09,06,17.30
2009,07,05,09,07,17.30
2009,07,05,09,08,17.30
2009,07,05,09,09,17.30
2009,07,05,09,10,17.30
2009,07,05,09,11,17.30
2009,07,05,09,12,17.30
2009,07,05,09,13,17.30
2009,07,05,09,14,17.30
2009,07,05,09,15,17.30
2009,07,05,09,16,17.30
2009,07,05,09,17,17.30
2009,07,05,09,18,17.30
2009,07,05,09,19,17.30
2009,07,05,09,20,17.30
2009,07,05,09,21,17.40
2009,07,05,09,22,17.40
2009,07,05,09,23,17.40
2009,07,05,09,24,17.40
2009,07,05,09,25,17.40
2009,07,05,09,26,17.50
2009,07,05,09,27,17.50
2009,07,05,09,28,17.60
2009,07,05,09,29,17.60
2009,07,05,09,30,17.60
2009,07,05,09,31,17.70
2009,07,05,09,32,17.70
2009,07,05,09,33,17.70
2009,07,05,09,34,17.80
2009,07,05,09,35,17.80
2009,07,05,09,36,17.90
2009,07,05,09,37,18.00
2009,07,05,09,38,18.00
2009,07,05,09,39,18.00
2009,07,05,09,40,18.10
2009,07,05,09,41,18.10
2009,07,05,09,42,18.20
2009,07,05,09,43,18.20
2009,07,05,09,44,18.30
2009,07,05,09,45,18.40
2009,07,05,09,46,18.50
2009,07,05,09,47,18.50
2009,07,05,09,48,18.60
2009,07,05,09,49,18.60
2009,07,05,09,50,18.70
2009,07,05,09,51,18.70
2009,07,05,09,52,18.80
2009,07,05,09,53,18.90
2009,07,05,09,54,19.00
2009,07,05,09,55,19.00
2009,07,05,09,56,19.10
2009,07,05,09,57,19.20
2009,07,05,09,58,19.30
2009,07,05,09,59,19.40
2009,07,05,10,00,19.50
2009,07,05,10,01,19.60
2009,07,05,10,02,19.70
2009,07,05,10,03,19.80
2009,07,05,10,04,19.80
2009,07,05,10,05,19.90
2009,07,05,10,06,19.90
2009,07,05,10,07,19.90
2009,07,05,10,08,19.90
2009,07,05,10,09,19.90
2009,07,05,10,10,19.90
2009,07,05,10,11,20.00
2009,07,05,10,12,19.90
2009,07,05,10,13,19.90
2009,07,05,10,14,19.90
2009,07,05,10,15,19.90
2009,07,05,10,16,19.90
2009,07,05,10,17,19.80
2009,07,05,10,18,19.60
2009,07,05,10,19,19.50
2009,07,05,10,20,19.30
2009,07,05,10,21,19.20
2009,07,05,10,22,19.20
2009,07,05,10,23,19.10
2009,07,05,10,24,19.00
2009,07,05,10,25,18.90
2009,07,05,10,26,18.90
2009,07,05,10,27,18.90
2009,07,05,10,28,18.90
2009,07,05,10,29,18.90
2009,07,05,10,30,19.00
2009,07,05,10,31,19.10
2009,07,05,10,32,19.30
2009,07,05,10,33,19.40
2009,07,05,10,34,19.50
2009,07,05,10,35,19.60
2009,07,05,10,36,19.60
2009,07,05,10,37,19.70
2009,07,05,10,38,19.70
2009,07,05,10,39,19.70
2009,07,05,10,40,19.70
2009,07,05,10,41,19.70
2009,07,05,10,42,19.70
2009,07,05,10,43,19.70
2009,07,05,10,44,19.70
2009,07,05,10,45,19.80
2009,07,05,10,46,19.80
2009,07,05,10,47,19.80
2009,07,05,10,48,19.80
2009,07,05,10,49,19.70
2009,07,05,10,50,19.70
2009,07,05,10,51,19.70
2009,07,05,10,52,19.70
2009,07,05,10,53,19.70
2009,07,05,10,54,19.70
2009,07,05,10,55,19.80
2009,07,05,10,56,19.80
2009,07,05,10,57,19.90
2009,07,05,10,58,20.00
2009,07,05,10,59,20.20
2009,07,05,11,00,20.30
2009,07,05,11,01,20.50
2009,07,05,11,02,20.60
2009,07,05,11,03,20.70
2009,07,05,11,04,20.70
2009,07,05,11,05,20.80
2009,07,05,11,06,20.70
2009,07,05,11,07,20.70
2009,07,05,11,08,20.60
2009,07,05,11,09,20.60
2009,07,05,11,10,20.60
2009,07,05,11,11,20.50
2009,07,05,11,12,20.50
2009,07,05,11,13,20.50
2009,07,05,11,14,20.50
2009,07,05,11,15,20.50
2009,07,05,11,16,20.40
2009,07,05,11,17,20.40
2009,07,05,11,18,20.40
2009,07,05,11,19,20.40
2009,07,05,11,20,20.50
2009,07,05,11,21,20.50
2009,07,05,11,22,20.60
2009,07,05,11,23,20.60
2009,07,05,11,24,20.60
2009,07,05,11,25,20.60
2009,07,05,11,26,20.60
2009,07,05,11,27,20.70
2009,07,05,11,28,20.70
2009,07,05,11,29,20.80
2009,07,05,11,30,20.80
2009,07,05,11,31,20.80
2009,07,05,11,32,20.90
2009,07,05,11,33,20.90
2009,07,05,11,34,20.90
2009,07,05,11,35,20.80
2009,07,05,11,36,20.70
2009,07,05,11,37,20.70
2009,07,05,11,38,20.60
2009,07,05,11,39,20.60
2009,07,05,11,40,20.60
2009,07,05,11,41,20.60
2009,07,05,11,42,20.50
2009,07,05,11,43,20.40
2009,07,05,11,44,20.40
2009,07,05,11,45,20.40
2009,07,05,11,46,20.40
2009,07,05,11,47,20.30
2009,07,05,11,48,20.30
2009,07,05,11,49,20.30
2009,07,05,11,50,20.30
2009,07,05,11,51,20.30
2009,07,05,11,52,20.30
2009,07,05,11,53,20.40
2009,07,05,11,54,20.40
2009,07,05,11,55,20.50
2009,07,05,11,56,20.50
2009,07,05,11,57,20.50
2009,07,05,11,58,20.60
2009,07,05,11,59,20.60
2009,07,05,12,00,20.70
2009,07,05,12,01,20.70
2009,07,05,12,02,20.70
2009,07,05,12,03,20.70
2009,07,05,12,04,20.80
2009,07,05,12,05,20.80
2009,07,05,12,06,20.80
2009,07,05,12,07,20.90
2009,07,05,12,08,20.90
2009,07,05,12,09,20.90
2009,07,05,12,10,20.90
2009,07,05,12,11,20.80
2009,07,05,12,12,20.80
2009,07,05,12,13,20.80
2009,07,05,12,14,20.80
2009,07,05,12,15,20.80
2009,07,05,12,16,20.70
2009,07,05,12,17,20.70
2009,07,05,12,18,20.70
2009,07,05,12,19,20.70
2009,07,05,12,20,20.70
2009,07,05,12,21,20.70
2009,07,05,12,22,20.70
2009,07,05,12,23,20.80
2009,07,05,12,24,20.90
2009,07,05,12,25,21.10
2009,07,05,12,26,21.20
2009,07,05,12,27,21.30
2009,07,05,12,28,21.40
2009,07,05,12,29,21.50
2009,07,05,12,30,21.50
2009,07,05,12,31,21.50
2009,07,05,12,32,21.50
2009,07,05,12,33,21.60
2009,07,05,12,34,21.60
2009,07,05,12,35,21.60
2009,07,05,12,36,21.60
2009,07,05,12,37,21.60
2009,07,05,12,38,21.70
2009,07,05,12,39,21.70
2009,07,05,12,40,21.70
2009,07,05,12,41,21.70
2009,07,05,12,42,21.80
2009,07,05,12,43,21.80
2009,07,05,12,44,21.80
2009,07,05,12,45,21.70
2009,07,05,12,46,21.70
2009,07,05,12,47,21.70
2009,07,05,12,48,21.70
2009,07,05,12,49,21.80
2009,07,05,12,50,21.80
2009,07,05,12,51,21.80
2009,07,05,12,52,21.90
2009,07,05,12,53,21.90
2009,07,05,12,54,21.90
2009,07,05,12,55,22.00
2009,07,05,12,56,22.00
2009,07,05,12,57,22.00
2009,07,05,12,58,22.10
2009,07,05,12,59,22.10
2009,07,05,13,00,22.20
2009,07,05,13,01,22.30
2009,07,05,13,02,22.30
2009,07,05,13,03,22.40
2009,07,05,13,04,22.40
2009,07,05,13,05,22.40
2009,07,05,13,06,22.50
2009,07,05,13,07,22.50
2009,07,05,13,08,22.60
2009,07,05,13,09,22.60
2009,07,05,13,10,22.70
2009,07,05,13,11,22.80
2009,07,05,13,12,22.80
2009,07,05,13,13,22.80
2009,07,05,13,14,22.80
2009,07,05,13,15,22.80
2009,07,05,13,16,22.90
2009,07,05,13,17,23.00
2009,07,05,13,18,23.00
2009,07,05,13,19,22.80
2009,07,05,13,20,22.70
2009,07,05,13,21,22.60
2009,07,05,13,22,22.50
2009,07,05,13,23,22.40
2009,07,05,13,24,22.30
2009,07,05,13,25,22.20
2009,07,05,13,26,22.10
2009,07,05,13,27,22.10
2009,07,05,13,28,22.10
2009,07,05,13,29,22.00
2009,07,05,13,30,22.00
2009,07,05,13,31,22.10
2009,07,05,13,32,22.20
2009,07,05,13,33,22.10
2009,07,05,13,34,22.10
2009,07,05,13,35,22.20
2009,07,05,13,36,22.30
2009,07,05,13,37,22.30
2009,07,05,13,38,22.30
2009,07,05,13,39,22.30
2009,07,05,13,40,22.40
2009,07,05,13,41,22.40
2009,07,05,13,42,22.40
2009,07,05,13,43,22.50
2009,07,05,13,44,22.60
2009,07,05,13,45,22.70
2009,07,05,13,46,22.70
2009,07,05,13,47,22.80
2009,07,05,13,48,22.70
2009,07,05,13,49,22.70
2009,07,05,13,50,22.60
2009,07,05,13,51,22.60
2009,07,05,13,52,22.60
2009,07,05,13,53,22.70
2009,07,05,13,54,22.80
2009,07,05,13,55,22.90
2009,07,05,13,56,23.00
2009,07,05,13,57,23.10
2009,07,05,13,58,23.20
2009,07,05,13,59,23.40
2009,07,05,14,00,23.40
2009,07,05,14,01,23.50
2009,07,05,14,02,23.60
2009,07,05,14,03,23.70
2009,07,05,14,04,23.80
2009,07,05,14,05,23.80
2009,07,05,14,06,23.80
2009,07,05,14,07,23.70
2009,07,05,14,08,23.70
2009,07,05,14,09,23.70
2009,07,05,14,10,23.70
2009,07,05,14,11,23.70
2009,07,05,14,12,23.70
2009,07,05,14,13,23.80
2009,07,05,14,14,23.80
2009,07,05,14,15,23.80
2009,07,05,14,16,23.70
2009,07,05,14,17,23.70
2009,07,05,14,18,23.70
2009,07,05,14,19,23.80
2009,07,05,14,20,23.80
2009,07,05,14,21,23.90
2009,07,05,14,22,23.90
2009,07,05,14,23,24.00
2009,07,05,14,24,24.00
2009,07,05,14,25,24.10
2009,07,05,14,26,24.00
2009,07,05,14,27,23.90
2009,07,05,14,28,23.90
2009,07,05,14,29,23.80
2009,07,05,14,30,23.80
2009,07,05,14,31,23.70
2009,07,05,14,32,23.50
2009,07,05,14,33,23.40
2009,07,05,14,34,23.30
2009,07,05,14,35,23.20
2009,07,05,14,36,23.10
2009,07,05,14,37,23.00
2009,07,05,14,38,23.10
2009,07,05,14,39,23.10
2009,07,05,14,40,23.10
2009,07,05,14,41,23.10
2009,07,05,14,42,23.20
2009,07,05,14,43,23.30
2009,07,05,14,44,23.30
2009,07,05,14,45,23.30
2009,07,05,14,46,23.20
2009,07,05,14,47,23.20
2009,07,05,14,48,23.20
2009,07,05,14,49,23.10
2009,07,05,14,50,23.10
2009,07,05,14,51,23.10
2009,07,05,14,52,23.00
2009,07,05,14,53,23.00
2009,07,05,14,54,22.90
2009,07,05,14,55,22.90
2009,07,05,14,56,22.80
2009,07,05,14,57,22.80
2009,07,05,14,58,22.90
2009,07,05,14,59,22.90
2009,07,05,15,00,22.90
2009,07,05,15,01,22.90
2009,07,05,15,02,22.90
2009,07,05,15,03,22.80
2009,07,05,15,04,22.80
2009,07,05,15,05,22.80
2009,07,05,15,06,22.80
2009,07,05,15,07,22.90
2009,07,05,15,08,22.90
2009,07,05,15,09,22.90
2009,07,05,15,10,22.90
2009,07,05,15,11,23.00
2009,07,05,15,12,23.10
2009,07,05,15,13,23.10
2009,07,05,15,14,23.20
2009,07,05,15,15,23.30
2009,07,05,15,16,23.30
2009,07,05,15,17,23.30
2009,07,05,15,18,23.20
2009,07,05,15,19,23.20
2009,07,05,15,20,23.20
2009,07,05,15,21,23.20
2009,07,05,15,22,23.10
2009,07,05,15,23,23.10
2009,07,05,15,24,23.00
2009,07,05,15,25,22.90
2009,07,05,15,26,22.90
2009,07,05,15,27,22.90
2009,07,05,15,28,22.90
2009,07,05,15,29,22.80
2009,07,05,15,30,22.90
2009,07,05,15,31,22.90
2009,07,05,15,32,22.90
2009,07,05,15,33,22.90
2009,07,05,15,34,22.90
2009,07,05,15,35,22.80
2009,07,05,15,36,22.80
2009,07,05,15,37,22.80
2009,07,05,15,38,22.90
2009,07,05,15,39,23.00
2009,07,05,15,40,23.10
2009,07,05,15,41,23.00
2009,07,05,15,42,23.00
2009,07,05,15,43,22.90
2009,07,05,15,44,22.80
2009,07,05,15,45,22.80
2009,07,05,15,46,22.90
2009,07,05,15,47,22.90
2009,07,05,15,48,22.90
2009,07,05,15,49,22.90
2009,07,05,15,50,22.80
2009,07,05,15,51,22.60
2009,07,05,15,52,22.60
2009,07,05,15,53,22.60
2009,07,05,15,54,22.70
2009,07,05,15,55,22.80
2009,07,05,15,56,22.90
2009,07,05,15,57,23.00
2009,07,05,15,58,23.10
2009,07,05,15,59,23.20
2009,07,05,16,00,23.30
2009,07,05,16,01,23.40
2009,07,05,16,02,23.40
2009,07,05,16,03,23.40
2009,07,05,16,04,23.40
2009,07,05,16,05,23.40
2009,07,05,16,06,23.40
2009,07,05,16,07,23.30
2009,07,05,16,08,23.30
2009,07,05,16,09,23.30
2009,07,05,16,10,23.30
2009,07,05,16,11,23.30
2009,07,05,16,12,23.20
2009,07,05,16,13,23.20
2009,07,05,16,14,23.20
2009,07,05,16,15,23.10
2009,07,05,16,16,23.10
2009,07,05,16,17,23.10
2009,07,05,16,18,23.00
2009,07,05,16,19,23.10
2009,07,05,16,20,23.10
2009,07,05,16,21,23.10
2009,07,05,16,22,23.10
2009,07,05,16,23,23.00
2009,07,05,16,24,22.90
2009,07,05,16,25,22.90
2009,07,05,16,26,22.90
2009,07,05,16,27,22.80
2009,07,05,16,28,22.80
2009,07,05,16,29,22.80
2009,07,05,16,30,22.80
2009,07,05,16,31,22.80
2009,07,05,16,32,22.70
2009,07,05,16,33,22.70
2009,07,05,16,34,22.70
2009,07,05,16,35,22.80
2009,07,05,16,36,22.70
2009,07,05,16,37,22.70
2009,07,05,16,38,22.70
2009,07,05,16,39,22.70
2009,07,05,16,40,22.60
2009,07,05,16,41,22.60
2009,07,05,16,42,22.60
2009,07,05,16,43,22.60
2009,07,05,16,44,22.70
2009,07,05,16,45,22.70
2009,07,05,16,46,22.70
2009,07,05,16,47,22.80
2009,07,05,16,48,22.80
2009,07,05,16,49,22.90
2009,07,05,16,50,23.00
2009,07,05,16,51,23.00
2009,07,05,16,52,23.10
2009,07,05,16,53,23.10
2009,07,05,16,54,23.10
2009,07,05,16,55,23.20
2009,07,05,16,56,23.20
2009,07,05,16,57,23.30
2009,07,05,16,58,23.30
2009,07,05,16,59,23.30
2009,07,05,17,00,23.40
2009,07,05,17,01,23.40
2009,07,05,17,02,23.40
2009,07,05,17,03,23.40
2009,07,05,17,04,23.40
2009,07,05,17,05,23.40
2009,07,05,17,06,23.40
2009,07,05,17,07,23.40
2009,07,05,17,08,23.30
2009,07,05,17,09,23.30
2009,07,05,17,10,23.20
2009,07,05,17,11,23.20
2009,07,05,17,12,23.20
2009,07,05,17,13,23.20
2009,07,05,17,14,23.20
2009,07,05,17,15,23.20
2009,07,05,17,16,23.20
2009,07,05,17,17,23.20
2009,07,05,17,18,23.10
2009,07,05,17,19,23.10
2009,07,05,17,20,23.10
2009,07,05,17,21,23.20
2009,07,05,17,22,23.20
2009,07,05,17,23,23.20
2009,07,05,17,24,23.20